Melfa, VA

6:41 PM EDT on April 24, 2017 (GMT -0400)
Accomack County

Weather History for KMFV - November, 2012

Change the Weather History Date:

Tuesday, November 13, 2012

  Actual Average (KWAL) Record (KWAL)
Temperature  
Mean Temperature 54 °F -  
Max Temperature 64 °F 55 °F 76 °F (1985)
Min Temperature 44 °F 38 °F 27 °F (1996)
Degree Days  
Heating Degree Days 11    
Growing Degree Days 4 (Base 50)    
Moisture  
Dew Point 46 °F    
Average Humidity 82    
Maximum Humidity 94    
Minimum Humidity 62    
Precipitation  
Precipitation 0.23 in - - ()
Sea Level Pressure  
Sea Level Pressure 30.31 in    
Wind  
Wind Speed 9 mph (North)    
Max Wind Speed 17 mph    
Max Gust Speed 26 mph    
Visibility 9 miles    
Events Rain    
Averages and records for this station are not official NWS values.
T = Trace of Precipitation, MM = Missing Value Source: NWS Daily Summary

Daily Weather History Graph

Daily Weather History Graph

Search for Another Location

Airport or City:

Trip Planner

Search our weather history database for the weather conditions in past years. The results will help you decide how hot, cold, wet, or windy it might be!

Date:

Astronomy

Nov. 13, 2012 Rise Set
Actual Time 6:41 AM EST 4:53 PM EST
Civil Twilight 6:13 AM EST 5:20 PM EST
Nautical Twilight 5:41 AM EST 5:52 PM EST
Astronomical Twilight 5:10 AM EST 6:23 PM EST
Moon 6:16 AM EST (11/13) 4:44 PM EST (11/13)
Length of Visible Light 11h 07m
Length of Day
10h 11m
Waning Crescent, 0% of the Moon is Illuminated
Nov 13
Waning Crescent
Nov 13
New
Nov 20
First Quarter
Nov 28
Full
Dec 6
Last Quarter

Hourly Weather History & Observations

Time (EST) Temp. Windchill Dew Point Humidity Pressure Visibility Wind Dir Wind Speed Gust Speed Precip Events Conditions
12:17 AM 64.4 °F - 60.8 °F 88% 30.21 in 10.0 mi South 8.1 mph - N/A   Mostly Cloudy
12:36 AM 64.4 °F - 60.8 °F 88% 30.20 in 10.0 mi South 9.2 mph 17.3 mph N/A   Overcast
12:57 AM 64.4 °F - 60.8 °F 88% 30.20 in 10.0 mi South 8.1 mph - N/A   Overcast
1:15 AM 64.4 °F - 60.8 °F 88% 30.20 in 10.0 mi South 8.1 mph - N/A   Unknown
1:38 AM 64.4 °F - 60.8 °F 88% 30.20 in 10.0 mi South 8.1 mph 16.1 mph N/A Rain Light Rain
1:56 AM 64.4 °F - 60.8 °F 88% 30.19 in 10.0 mi South 6.9 mph - N/A   Overcast
2:17 AM 64.4 °F - 60.8 °F 88% 30.19 in 10.0 mi South 4.6 mph - N/A   Mostly Cloudy
2:36 AM 62.6 °F - 60.8 °F 94% 30.18 in 10.0 mi South 6.9 mph - N/A   Mostly Cloudy
2:58 AM 62.6 °F - 59.0 °F 88% 30.18 in 10.0 mi South 5.8 mph - N/A   Mostly Cloudy
3:16 AM 62.6 °F - 59.0 °F 88% 30.18 in 10.0 mi South 5.8 mph - N/A   Scattered Clouds
3:57 AM 62.6 °F - 59.0 °F 88% 30.17 in 10.0 mi SSW 5.8 mph - N/A   Mostly Cloudy
4:17 AM 62.6 °F - 60.8 °F 94% 30.18 in 10.0 mi South 5.8 mph - N/A   Overcast
4:36 AM 62.6 °F - 59.0 °F 88% 30.18 in 10.0 mi South 5.8 mph - N/A   Mostly Cloudy
4:56 AM 62.6 °F - 59.0 °F 88% 30.18 in 10.0 mi SSW 5.8 mph - N/A   Mostly Cloudy
5:18 AM 62.6 °F - 59.0 °F 88% 30.18 in 10.0 mi SSW 6.9 mph - N/A   Overcast
5:35 AM 62.6 °F - 59.0 °F 88% 30.19 in 10.0 mi West 10.4 mph 24.2 mph N/A   Unknown
5:57 AM 55.4 °F - 50.0 °F 82% 30.22 in 10.0 mi NNW 10.4 mph 19.6 mph N/A   Overcast
6:18 AM 53.6 °F - 50.0 °F 88% 30.24 in 10.0 mi NW 11.5 mph 21.9 mph N/A   Overcast
6:37 AM 53.6 °F - 48.2 °F 82% 30.24 in 10.0 mi NNW 12.7 mph 20.7 mph N/A   Overcast
6:55 AM 53.6 °F - 48.2 °F 82% 30.25 in 10.0 mi NNW 12.7 mph 23.0 mph N/A   Overcast
7:17 AM 53.6 °F - 46.4 °F 77% 30.27 in 10.0 mi NNW 11.5 mph 26.5 mph N/A   Overcast
7:35 AM 51.8 °F - 48.2 °F 88% 30.27 in 10.0 mi NNW 16.1 mph 21.9 mph N/A   Overcast
7:58 AM 53.6 °F - 46.4 °F 77% 30.30 in 10.0 mi North 11.5 mph 23.0 mph N/A Rain Light Rain
8:19 AM 51.8 °F - 46.4 °F 82% 30.30 in 10.0 mi North 17.3 mph 24.2 mph N/A Rain Light Rain
8:37 AM 50.0 °F - 46.4 °F 87% 30.31 in 4.0 mi North 8.1 mph 21.9 mph 0.02 in Rain Rain
8:56 AM 50.0 °F - 46.4 °F 87% 30.32 in 3.0 mi North 9.2 mph 19.6 mph N/A   Drizzle
9:16 AM 50.0 °F - 46.4 °F 87% 30.33 in 7.0 mi North 11.5 mph 18.4 mph 0.01 in   Heavy Drizzle
9:36 AM 50.0 °F - 46.4 °F 87% 30.34 in 5.0 mi North 11.5 mph 19.6 mph 0.02 in   Light Drizzle
9:55 AM 48.2 °F - 46.4 °F 93% 30.35 in 5.0 mi NNW 10.4 mph 20.7 mph 0.03 in   Drizzle
10:16 AM 48.2 °F - 46.4 °F 93% 30.36 in 5.0 mi NNW 11.5 mph 20.7 mph 0.02 in Rain Heavy Rain
10:59 AM 48.2 °F - 44.6 °F 87% 30.36 in 5.0 mi NNW 10.4 mph 19.6 mph N/A   Overcast
11:15 AM 46.4 °F 39.8 °F 44.6 °F 93% 30.36 in 4.0 mi NNW 16.1 mph 21.9 mph N/A   Overcast
11:35 AM 46.4 °F 41.5 °F 42.8 °F 87% 30.34 in 10.0 mi NNW 10.4 mph 19.6 mph N/A   Overcast
11:55 AM 46.4 °F 40.4 °F 42.8 °F 87% 30.34 in 10.0 mi North 13.8 mph 20.7 mph N/A   Overcast
12:16 PM 44.6 °F 38.8 °F 39.2 °F 81% 30.34 in 10.0 mi North 11.5 mph 21.9 mph N/A   Drizzle
12:35 PM 44.6 °F 40.7 °F 39.2 °F 81% 30.33 in 10.0 mi North 6.9 mph 16.1 mph 0.01 in Rain Light Rain
12:55 PM 44.6 °F 38.8 °F 41.0 °F 87% 30.33 in 10.0 mi North 11.5 mph - 0.01 in Rain Light Rain
1:15 PM 44.6 °F 39.7 °F 41.0 °F 87% 30.33 in 10.0 mi NNW 9.2 mph - 0.01 in Rain Light Rain
1:55 PM 46.4 °F 43.5 °F 41.0 °F 81% 30.33 in 10.0 mi North 5.8 mph - 0.02 in Rain Rain
2:15 PM 46.4 °F 41.1 °F 41.0 °F 81% 30.32 in 7.0 mi North 11.5 mph 16.1 mph N/A Rain Light Rain
2:35 PM 46.4 °F 41.5 °F 41.0 °F 81% 30.32 in 10.0 mi North 10.4 mph - 0.01 in   Overcast
2:55 PM 46.4 °F 42.4 °F 41.0 °F 81% 30.32 in 10.0 mi North 8.1 mph - 0.01 in Rain Light Rain
3:15 PM 46.4 °F 41.9 °F 41.0 °F 81% 30.33 in 10.0 mi North 9.2 mph - N/A Rain Light Rain
3:35 PM 44.6 °F 42.2 °F 39.2 °F 81% 30.34 in 10.0 mi North 4.6 mph - 0.01 in Rain Light Rain
3:55 PM 44.6 °F 40.2 °F 41.0 °F 87% 30.34 in 10.0 mi North 8.1 mph - 0.01 in   Light Drizzle
4:15 PM 44.6 °F 41.4 °F 39.2 °F 81% 30.34 in 10.0 mi North 5.8 mph - N/A   Light Drizzle
4:35 PM 44.6 °F 40.7 °F 39.2 °F 81% 30.34 in 10.0 mi North 6.9 mph - N/A Rain Rain
4:55 PM 44.6 °F 41.4 °F 39.2 °F 81% 30.35 in 10.0 mi North 5.8 mph - N/A   Overcast
5:15 PM 44.6 °F 40.2 °F 39.2 °F 81% 30.36 in 10.0 mi North 8.1 mph - N/A   Drizzle
5:35 PM 44.6 °F 40.2 °F 39.2 °F 81% 30.37 in 10.0 mi North 8.1 mph - 0.01 in Rain Light Rain
5:55 PM 44.6 °F 40.7 °F 39.2 °F 81% 30.37 in 10.0 mi North 6.9 mph - 0.01 in Rain Light Rain
6:15 PM 44.6 °F 40.2 °F 39.2 °F 81% 30.37 in 10.0 mi North 8.1 mph - N/A   Overcast
6:35 PM 44.6 °F 39.2 °F 37.4 °F 76% 30.38 in 10.0 mi North 10.4 mph - N/A   Overcast
6:55 PM 44.6 °F 40.2 °F 39.2 °F 81% 30.39 in 7.0 mi North 8.1 mph - 0.02 in Rain Rain
7:15 PM 44.6 °F 39.2 °F 39.2 °F 81% 30.39 in 10.0 mi North 10.4 mph 16.1 mph 0.04 in Rain Rain
7:35 PM 44.6 °F 40.2 °F 39.2 °F 81% 30.39 in 10.0 mi North 8.1 mph - 0.06 in Rain Light Rain
8:15 PM 44.6 °F 41.4 °F 39.2 °F 81% 30.40 in 10.0 mi North 5.8 mph - N/A Rain Light Rain
8:35 PM 44.6 °F 42.2 °F 37.4 °F 76% 30.41 in 10.0 mi North 4.6 mph - N/A Rain Rain
8:55 PM 44.6 °F 40.7 °F 37.4 °F 76% 30.41 in 10.0 mi North 6.9 mph - 0.01 in Rain Light Rain
9:15 PM 44.6 °F 41.4 °F 37.4 °F 76% 30.41 in 10.0 mi North 5.8 mph - 0.01 in Rain Light Rain
9:35 PM 44.6 °F 41.4 °F 37.4 °F 76% 30.41 in 10.0 mi North 5.8 mph - 0.01 in   Overcast
9:55 PM 44.6 °F 40.2 °F 35.6 °F 71% 30.41 in 10.0 mi North 8.1 mph - 0.01 in   Overcast
10:15 PM 44.6 °F 40.7 °F 35.6 °F 71% 30.42 in 10.0 mi North 6.9 mph - N/A   Overcast
10:35 PM 46.4 °F 41.9 °F 35.6 °F 66% 30.42 in 10.0 mi North 9.2 mph - N/A   Overcast
10:55 PM 46.4 °F 41.5 °F 33.8 °F 62% 30.42 in 10.0 mi North 10.4 mph 19.6 mph N/A   Overcast
11:15 PM 46.4 °F 42.4 °F 33.8 °F 62% 30.42 in 10.0 mi North 8.1 mph - N/A   Overcast
11:35 PM 46.4 °F 41.9 °F 33.8 °F 62% 30.42 in 10.0 mi North 9.2 mph - N/A   Overcast
11:55 PM 46.4 °F 42.9 °F 33.8 °F 62% 30.42 in 10.0 mi North 6.9 mph - N/A   Overcast